Albuquerque, NM

3:28 AM MDT on September 28, 2016 (GMT -0600)
Albuquerque International Sunport

Weather History for KABQ - September, 2012

Change the Weather History Date:

Tuesday, September 4, 2012

  Actual Average Record
Temperature  
Mean Temperature 82 °F 73 °F  
Max Temperature 94 °F 85 °F 97 °F (1979)
Min Temperature 69 °F 62 °F 40 °F (1961)
Degree Days  
Heating Degree Days 0 0  
Month to date heating degree days 0 0  
Since 1 July heating degree days 0 0  
Cooling Degree Days 17 8  
Month to date cooling degree days 66 35  
Year to date cooling degree days 1612 1192  
Growing Degree Days 32 (Base 50)    
Moisture  
Dew Point 41 °F    
Average Humidity 29    
Maximum Humidity 44    
Minimum Humidity 14    
Precipitation  
Precipitation 0.00 in 0.04 in 0.58 in (1975)
Month to date precipitation 0.00 0.15  
Year to date precipitation 4.79 6.43  
Snow  
Snow 0.00 in - - ()
Month to date snowfall 0.0  
Since 1 July snowfall 0.0  
Since 1 September snowfall 0.0  
Snow Depth 0.00 in    
Sea Level Pressure  
Sea Level Pressure 29.87 in    
Wind  
Wind Speed 7 mph (NNW)    
Max Wind Speed 15 mph    
Max Gust Speed 20 mph    
Visibility 10 miles    
Events      
T = Trace of Precipitation, MM = Missing Value Source: NWS Daily Summary

Daily Weather History Graph

Daily Weather History Graph

Search for Another Location

Airport or City:

Trip Planner

Search our weather history database for the weather conditions in past years. The results will help you decide how hot, cold, wet, or windy it might be!

Date:

Astronomy

Sep. 04, 2012 Rise Set
Actual Time 6:41 AM MDT 7:28 PM MDT
Civil Twilight 6:15 AM MDT 7:53 PM MDT
Nautical Twilight 5:45 AM MDT 8:24 PM MDT
Astronomical Twilight 5:14 AM MDT 8:55 PM MDT
Moon 9:36 PM MDT (9/4) 10:38 AM MDT (9/4)
Length of Visible Light 13h 37m
Length of Day
12h 46m
Waning Gibbous, 83% of the Moon is Illuminated
Sep 4
Waning Gibbous
Sep 8
Last Quarter
Sep 15
New
Sep 22
First Quarter
Sep 29
Full

Hourly Weather History & Observations

Time (MDT) Temp. Dew Point Humidity Pressure Visibility Wind Dir Wind Speed Gust Speed Precip Events Conditions
12:52 AM 78.1 °F 46.9 °F 33% 29.88 in 10.0 mi SSW 8.1 mph - N/A   Mostly Cloudy
1:52 AM 73.9 °F 45.0 °F 35% 29.88 in 10.0 mi SE 5.8 mph - N/A   Mostly Cloudy
2:52 AM 73.0 °F 46.0 °F 38% 29.88 in 10.0 mi SE 5.8 mph - N/A   Mostly Cloudy
3:52 AM 71.1 °F 46.0 °F 41% 29.88 in 10.0 mi SSE 4.6 mph - N/A   Scattered Clouds
4:52 AM 69.1 °F 46.0 °F 44% 29.89 in 10.0 mi ESE 3.5 mph - N/A   Scattered Clouds
5:52 AM 70.0 °F 46.0 °F 42% 29.91 in 10.0 mi East 5.8 mph - N/A   Scattered Clouds
6:52 AM 73.0 °F 46.0 °F 38% 29.91 in 10.0 mi ENE 5.8 mph - N/A   Mostly Cloudy
7:52 AM 77.0 °F 43.0 °F 30% 29.93 in 10.0 mi North 8.1 mph - N/A   Mostly Cloudy
8:52 AM 75.9 °F 46.9 °F 36% 29.95 in 10.0 mi WNW 3.5 mph - N/A   Mostly Cloudy
9:52 AM 79.0 °F 42.1 °F 27% 29.94 in 10.0 mi North 5.8 mph - N/A   Mostly Cloudy
10:52 AM 82.9 °F 41.0 °F 23% 29.94 in 10.0 mi NNW 5.8 mph - N/A   Mostly Cloudy
11:52 AM 87.1 °F 37.9 °F 18% 29.91 in 10.0 mi NW 8.1 mph - N/A   Scattered Clouds
12:52 PM 90.0 °F 37.9 °F 16% 29.88 in 10.0 mi NNE 8.1 mph 18.4 mph N/A   Mostly Cloudy
1:52 PM 91.4 °F 39.2 °F 16% 30.16 in 10.0 mi North 6.9 mph - N/A   Mostly Cloudy
2:52 PM 91.0 °F 37.9 °F 15% 29.84 in 10.0 mi WNW 10.4 mph - N/A   Mostly Cloudy
3:52 PM 91.0 °F 39.0 °F 16% 29.82 in 10.0 mi NNE 9.2 mph - N/A   Mostly Cloudy
4:52 PM 93.9 °F 39.0 °F 15% 29.79 in 10.0 mi Variable 3.5 mph - N/A   Mostly Cloudy
5:52 PM 91.0 °F 36.0 °F 14% 29.79 in 10.0 mi WNW 15.0 mph - N/A   Scattered Clouds
6:52 PM 89.1 °F 37.0 °F 16% 29.78 in 10.0 mi WNW 8.1 mph - N/A   Mostly Cloudy
7:52 PM 88.0 °F 37.9 °F 17% 29.78 in 10.0 mi WSW 4.6 mph - N/A   Mostly Cloudy
8:52 PM 86.0 °F 39.9 °F 20% 29.80 in 10.0 mi Calm Calm - N/A   Mostly Cloudy
9:52 PM 84.9 °F 37.9 °F 19% 29.81 in 10.0 mi WNW 6.9 mph - N/A   Mostly Cloudy
10:52 PM 82.9 °F 33.1 °F 17% 29.82 in 10.0 mi NW 5.8 mph - N/A   Mostly Cloudy
11:52 PM 80.1 °F 35.1 °F 20% 29.82 in 10.0 mi West 9.2 mph - N/A   Partly Cloudy